KORONAS-FOTON

Last updated on Sat Aug 15 2026 00:02:08 GMT+0000 (Coordinated Universal Time)

1 33504U 09003A 26226.64198778 .00007943 00000+0 15677-3 0 9996 2 33504 82.4288 111.2289 0008422 313.3161 46.7386 15.46935768970135
UTC large
Height (km)
Speed (km/s)
/
Latitude / Longitude
Inclination (degrees)
Orbital Period (minutes)
Azimuth
Elevation
Range (km)
Doppler Factor

Next 0 passes for location: London (51.5072 / 0.1276)

No passes found over London.
KORONAS-FOTON